{"data":{"norad_id":60995,"epoch":"2026-09-21T16:17:08.767680Z","epoch_age_seconds":90167,"freshness":"FRESH","line1":"1 60995U 24158F   26264.67857370  .00000622  00000+0  99979-5 0  9999","line2":"2 60995  53.1606  35.3507 0000981  91.5449 268.5682 15.69697912118366","mean_motion":15.69697912,"eccentricity":9.81e-5,"inclination_deg":53.1606,"raan_deg":35.3507,"arg_perigee_deg":91.5449,"mean_anomaly_deg":268.5682,"bstar":9.9979e-6,"rev_number":11836,"period_min":91.737396666678,"perigee_km":359.10035404339,"apogee_km":360.42232969806,"semimajor_km":6737.8983418707,"source":"CELESTRAK","updated_at":"2026-09-22T09:00:49.295194Z"}}